Time,TemperatureF,DewpointF,PressureIn,WindDirection,WindDirectionDegrees,WindSpeedMPH,WindSpeedGustMPH,Humidity,HourlyPrecipIn,Conditions,Clouds,dailyrainin,SoftwareType,DateUTC
2013-06-16 00:01:00,78.5,71.8,29.89,NNE,24,0.0,0.0,80,0.00,RA,,0.00,WeatherDisplay:10.37,2013-06-16 05:01:00,
2013-06-16 00:06:00,78.4,71.7,29.89,NNE,24,0.0,0.0,80,0.00,RA,,0.00,WeatherDisplay:10.37,2013-06-16 05:06:00,
2013-06-16 00:11:00,78.4,72.1,29.89,NNE,24,0.0,0.0,81,0.00,CLR,,0.00,WeatherDisplay:10.37,2013-06-16 05:11:00,
2013-06-16 00:16:00,78.3,72.0,29.89,NNE,24,0.0,0.0,81,0.00,CLR,,0.00,WeatherDisplay:10.37,2013-06-16 05:16:00,
2013-06-16 00:21:00,78.2,71.9,29.89,NNE,24,0.0,0.0,81,0.00,CLR,,0.00,WeatherDisplay:10.37,2013-06-16 05:21:00,
2013-06-16 00:26:00,78.1,71.8,29.89,NNE,24,0.0,0.0,81,0.00,CLR,,0.00,WeatherDisplay:10.37,2013-06-16 05:26:00,
2013-06-16 00:31:00,78.0,72.1,29.89,NNE,24,0.0,0.0,82,0.00,CLR,,0.00,WeatherDisplay:10.37,2013-06-16 05:31:00,
2013-06-16 00:36:00,77.9,72.0,29.89,NNE,24,0.0,0.0,82,0.00,CLR,,0.00,WeatherDisplay:10.37,2013-06-16 05:36:00,
2013-06-16 00:41:00,77.8,71.9,29.89,NNE,24,0.0,0.0,82,0.00,CLR,,0.00,WeatherDisplay:10.37,2013-06-16 05:41:00,
2013-06-16 00:46:00,77.6,71.7,29.89,NNE,24,0.0,0.0,82,0.00,CLR,,0.00,WeatherDisplay:10.37,2013-06-16 05:46:00,
2013-06-16 00:51:00,77.5,71.9,29.89,NNE,24,0.0,0.0,83,0.00,CLR,,0.00,WeatherDisplay:10.37,2013-06-16 05:51:00,
2013-06-16 00:56:00,77.5,71.9,29.89,NNE,24,0.0,0.0,83,0.00,CLR,,0.00,WeatherDisplay:10.37,2013-06-16 05:56:00,
2013-06-16 01:01:00,77.4,71.8,29.89,NNE,24,0.0,0.0,83,0.00,CLR,,0.00,WeatherDisplay:10.37,2013-06-16 06:01:00,
2013-06-16 01:06:00,77.3,72.1,29.89,NNE,24,0.0,0.0,84,0.00,CLR,,0.00,WeatherDisplay:10.37,2013-06-16 06:06:00,
2013-06-16 01:11:00,77.2,72.0,29.89,NNE,24,0.0,0.0,84,0.00,CLR,,0.00,WeatherDisplay:10.37,2013-06-16 06:11:00,
2013-06-16 01:16:00,77.1,71.9,29.89,NNE,24,0.0,0.0,84,0.00,CLR,,0.00,WeatherDisplay:10.37,2013-06-16 06:16:00,
2013-06-16 01:21:00,77.0,72.1,29.89,NNE,24,0.0,0.0,85,0.00,CLR,,0.00,WeatherDisplay:10.37,2013-06-16 06:21:00,
2013-06-16 01:26:00,76.9,72.4,29.89,NNE,24,0.0,1.2,86,0.00,CLR,,0.00,WeatherDisplay:10.37,2013-06-16 06:26:00,
2013-06-16 01:31:00,76.8,72.3,29.89,NNE,24,0.0,0.0,86,0.00,CLR,,0.00,WeatherDisplay:10.37,2013-06-16 06:31:00,
2013-06-16 01:36:00,76.7,72.2,29.89,WSW,247,0.2,1.2,86,0.00,CLR,,0.00,WeatherDisplay:10.37,2013-06-16 06:36:00,
2013-06-16 01:41:00,76.6,72.4,29.89,WSW,247,0.0,0.0,87,0.00,CLR,,0.00,WeatherDisplay:10.37,2013-06-16 06:41:00,
2013-06-16 01:46:00,76.6,72.4,29.89,WSW,247,0.0,0.0,87,0.00,CLR,,0.00,WeatherDisplay:10.37,2013-06-16 06:46:00,
2013-06-16 01:51:00,76.5,72.7,29.89,SW,236,0.0,0.0,88,0.00,CLR,,0.00,WeatherDisplay:10.37,2013-06-16 06:51:00,
2013-06-16 01:56:00,76.5,72.7,29.88,SW,236,0.0,0.0,88,0.00,CLR,,0.00,WeatherDisplay:10.37,2013-06-16 06:56:00,
2013-06-16 02:01:00,76.4,72.6,29.88,SW,236,0.0,0.0,88,0.00,CLR,,0.00,WeatherDisplay:10.37,2013-06-16 07:01:00,
2013-06-16 02:06:00,76.4,72.6,29.88,SW,236,0.0,0.0,88,0.00,CLR,,0.00,WeatherDisplay:10.37,2013-06-16 07:06:00,
2013-06-16 02:11:00,76.3,72.8,29.88,SW,236,0.0,0.0,89,0.00,CLR,,0.00,WeatherDisplay:10.37,2013-06-16 07:11:00,
2013-06-16 02:16:00,76.2,72.7,29.88,SW,233,0.0,0.0,89,0.00,CLR,,0.00,WeatherDisplay:10.37,2013-06-16 07:16:00,
2013-06-16 02:21:00,76.1,72.6,29.88,SW,233,0.0,1.2,89,0.00,CLR,,0.00,WeatherDisplay:10.37,2013-06-16 07:21:00,
2013-06-16 02:26:00,76.0,72.5,29.88,SW,233,0.0,0.0,89,0.00,CLR,,0.00,WeatherDisplay:10.37,2013-06-16 07:26:00,
2013-06-16 02:31:00,76.0,72.5,29.88,SW,233,0.0,0.0,89,0.00,CLR,,0.00,WeatherDisplay:10.37,2013-06-16 07:31:00,
2013-06-16 02:36:00,75.9,72.4,29.88,SW,233,0.0,0.0,89,0.00,CLR,,0.00,WeatherDisplay:10.37,2013-06-16 07:36:00,
2013-06-16 02:41:00,75.9,72.8,29.88,SW,233,0.0,0.0,90,0.00,CLR,,0.00,WeatherDisplay:10.37,2013-06-16 07:41:00,
2013-06-16 02:46:00,75.8,72.7,29.88,SW,215,0.0,0.0,90,0.00,CLR,,0.00,WeatherDisplay:10.37,2013-06-16 07:46:00,
2013-06-16 02:51:00,75.8,72.7,29.88,SW,215,0.0,0.0,90,0.00,CLR,,0.00,WeatherDisplay:10.37,2013-06-16 07:51:00,
2013-06-16 02:56:00,75.8,72.7,29.88,SW,215,0.0,0.0,90,0.00,CLR,,0.00,WeatherDisplay:10.37,2013-06-16 07:56:00,
2013-06-16 03:01:00,75.8,73.0,29.88,SW,215,0.0,0.0,91,0.00,CLR,,0.00,WeatherDisplay:10.37,2013-06-16 08:01:00,
2013-06-16 03:06:00,75.8,73.0,29.88,SW,215,0.0,0.0,91,0.00,CLR,,0.00,WeatherDisplay:10.37,2013-06-16 08:06:00,
2013-06-16 03:11:00,75.9,73.1,29.88,SW,215,0.0,0.0,91,0.00,CLR,,0.00,WeatherDisplay:10.37,2013-06-16 08:11:00,
2013-06-16 03:16:00,75.9,73.1,29.88,SW,215,0.0,0.0,91,0.00,CLR,,0.00,WeatherDisplay:10.37,2013-06-16 08:16:00,
2013-06-16 03:21:00,76.0,73.2,29.87,SW,215,0.0,0.0,91,0.00,CLR,,0.00,WeatherDisplay:10.37,2013-06-16 08:21:00,
2013-06-16 03:26:00,76.0,73.2,29.87,SW,215,0.0,0.0,91,0.00,CLR,,0.00,WeatherDisplay:10.37,2013-06-16 08:26:00,
2013-06-16 03:31:00,76.0,73.2,29.87,NE,43,0.9,3.5,91,0.00,CLR,,0.00,WeatherDisplay:10.37,2013-06-16 08:31:00,
2013-06-16 03:36:00,76.0,73.2,29.88,NE,43,0.0,0.0,91,0.00,CLR,,0.00,WeatherDisplay:10.37,2013-06-16 08:36:00,
2013-06-16 03:41:00,76.0,73.2,29.87,NE,43,0.0,0.0,91,0.00,CLR,,0.00,WeatherDisplay:10.37,2013-06-16 08:41:00,
2013-06-16 03:46:00,76.0,73.2,29.87,NW,304,0.1,1.0,91,0.00,CLR,,0.00,WeatherDisplay:10.37,2013-06-16 08:46:00,
2013-06-16 03:51:00,76.0,73.2,29.88,NW,304,0.0,0.0,91,0.00,CLR,,0.00,WeatherDisplay:10.37,2013-06-16 08:51:00,
2013-06-16 03:56:00,76.0,73.2,29.88,NW,304,0.0,0.0,91,0.00,CLR,,0.00,WeatherDisplay:10.37,2013-06-16 08:56:00,
2013-06-16 04:01:00,76.0,73.2,29.88,NW,304,0.0,0.0,91,0.00,CLR,,0.00,WeatherDisplay:10.37,2013-06-16 09:01:00,
2013-06-16 04:06:00,75.9,73.1,29.88,NW,304,0.0,0.0,91,0.00,CLR,,0.00,WeatherDisplay:10.37,2013-06-16 09:06:00,
2013-06-16 04:11:00,75.9,73.1,29.88,NW,304,0.0,0.0,91,0.00,CLR,,0.00,WeatherDisplay:10.37,2013-06-16 09:11:00,
2013-06-16 04:16:00,75.9,73.1,29.88,NW,304,0.0,0.0,91,0.00,CLR,,0.00,WeatherDisplay:10.37,2013-06-16 09:16:00,
2013-06-16 04:21:00,75.9,73.4,29.88,WSW,249,0.0,0.0,92,0.00,CLR,,0.00,WeatherDisplay:10.37,2013-06-16 09:21:00,
2013-06-16 04:26:00,75.9,73.4,29.88,West,259,0.0,1.2,92,0.00,CLR,,0.00,WeatherDisplay:10.37,2013-06-16 09:26:00,
2013-06-16 04:31:00,75.9,73.4,29.88,SSW,194,0.1,3.5,92,0.00,CLR,,0.00,WeatherDisplay:10.37,2013-06-16 09:31:00,
2013-06-16 04:36:00,75.8,73.3,29.88,SSW,194,0.0,0.0,92,0.00,CLR,,0.00,WeatherDisplay:10.37,2013-06-16 09:36:00,
2013-06-16 04:41:00,75.8,73.3,29.88,SSW,194,0.0,0.0,92,0.00,CLR,,0.00,WeatherDisplay:10.37,2013-06-16 09:41:00,
2013-06-16 04:46:00,75.8,73.3,29.88,WSW,241,0.0,0.0,92,0.00,CLR,,0.00,WeatherDisplay:10.37,2013-06-16 09:46:00,
2013-06-16 04:51:00,75.8,73.3,29.88,WSW,241,0.0,0.0,92,0.00,CLR,,0.00,WeatherDisplay:10.37,2013-06-16 09:51:00,
2013-06-16 04:56:00,75.8,73.3,29.89,WSW,241,0.0,0.0,92,0.00,CLR,,0.00,WeatherDisplay:10.37,2013-06-16 09:56:00,
2013-06-16 05:01:00,75.8,73.3,29.88,WSW,241,0.0,0.0,92,0.00,CLR,,0.00,WeatherDisplay:10.37,2013-06-16 10:01:00,
2013-06-16 05:06:00,75.7,73.2,29.89,WSW,241,0.0,0.0,92,0.00,CLR,,0.00,WeatherDisplay:10.37,2013-06-16 10:06:00,
2013-06-16 05:11:00,75.7,73.2,29.89,WSW,241,0.0,0.0,92,0.00,CLR,,0.00,WeatherDisplay:10.37,2013-06-16 10:11:00,
2013-06-16 05:16:00,75.7,73.2,29.89,WSW,241,0.0,0.0,92,0.00,CLR,,0.00,WeatherDisplay:10.37,2013-06-16 10:16:00,
2013-06-16 05:21:00,75.8,73.3,29.89,WSW,241,0.0,0.0,92,0.00,CLR,,0.00,WeatherDisplay:10.37,2013-06-16 10:21:00,
2013-06-16 05:26:00,75.7,73.2,29.89,WSW,241,0.0,0.0,92,0.00,CLR,,0.00,WeatherDisplay:10.37,2013-06-16 10:26:00,
2013-06-16 05:31:00,75.7,73.2,29.90,WSW,241,0.0,0.0,92,0.00,CLR,,0.00,WeatherDisplay:10.37,2013-06-16 10:31:00,
2013-06-16 05:36:00,75.7,73.2,29.90,WSW,241,0.0,0.0,92,0.00,CLR,,0.00,WeatherDisplay:10.37,2013-06-16 10:36:00,
2013-06-16 05:41:00,75.7,73.2,29.89,WSW,241,0.0,0.0,92,0.00,CLR,,0.00,WeatherDisplay:10.37,2013-06-16 10:41:00,
2013-06-16 05:46:00,75.7,73.2,29.90,WSW,241,0.0,0.0,92,0.00,CLR,,0.00,WeatherDisplay:10.37,2013-06-16 10:46:00,
2013-06-16 05:51:00,75.7,73.2,29.90,WSW,241,0.0,0.0,92,0.00,CLR,,0.00,WeatherDisplay:10.37,2013-06-16 10:51:00,
2013-06-16 05:56:00,75.7,73.2,29.90,WSW,241,0.0,0.0,92,0.00,CLR,,0.00,WeatherDisplay:10.37,2013-06-16 10:56:00,
2013-06-16 06:01:00,75.7,73.2,29.90,WSW,241,0.0,0.0,92,0.00,CLR,,0.00,WeatherDisplay:10.37,2013-06-16 11:01:00,
2013-06-16 06:06:00,75.6,73.1,29.90,WSW,241,0.0,0.0,92,0.00,CLR,,0.00,WeatherDisplay:10.37,2013-06-16 11:06:00,
2013-06-16 06:11:00,75.6,73.1,29.90,WSW,241,0.0,0.0,92,0.00,CLR,,0.00,WeatherDisplay:10.37,2013-06-16 11:11:00,
2013-06-16 06:16:00,75.6,73.1,29.90,WSW,241,0.0,0.0,92,0.00,CLR,,0.00,WeatherDisplay:10.37,2013-06-16 11:16:00,
2013-06-16 06:21:00,75.5,73.0,29.90,WSW,241,0.0,0.0,92,0.00,CLR,,0.00,WeatherDisplay:10.37,2013-06-16 11:21:00,
2013-06-16 06:26:00,75.5,73.0,29.91,WSW,241,0.0,0.0,92,0.00,CLR,,0.00,WeatherDisplay:10.37,2013-06-16 11:26:00,
2013-06-16 06:31:00,75.4,72.9,29.91,WSW,241,0.0,0.0,92,0.00,CLR,,0.00,WeatherDisplay:10.37,2013-06-16 11:31:00,
2013-06-16 06:36:00,75.4,72.9,29.91,WSW,241,0.0,0.0,92,0.00,CLR,,0.00,WeatherDisplay:10.37,2013-06-16 11:36:00,
2013-06-16 06:41:00,75.3,72.8,29.91,WSW,241,0.0,0.0,92,0.00,CLR,,0.00,WeatherDisplay:10.37,2013-06-16 11:41:00,
2013-06-16 06:46:00,75.3,72.8,29.91,WSW,241,0.0,0.0,92,0.00,CLR,,0.00,WeatherDisplay:10.37,2013-06-16 11:46:00,
2013-06-16 06:51:00,75.3,72.8,29.91,WSW,240,0.0,0.0,92,0.00,CLR,,0.00,WeatherDisplay:10.37,2013-06-16 11:51:00,
2013-06-16 06:56:00,75.2,72.7,29.91,WSW,240,0.3,2.3,92,0.00,CLR,,0.00,WeatherDisplay:10.37,2013-06-16 11:56:00,
2013-06-16 07:01:00,75.2,72.7,29.91,WSW,240,0.0,0.0,92,0.00,CLR,,0.00,WeatherDisplay:10.37,2013-06-16 12:01:00,
2013-06-16 07:06:00,75.1,72.6,29.91,WSW,240,0.0,0.0,92,0.00,CLR,,0.00,WeatherDisplay:10.37,2013-06-16 12:06:00,
2013-06-16 07:11:00,75.1,72.9,29.91,SSW,194,0.0,0.0,93,0.00,CLR,,0.00,WeatherDisplay:10.37,2013-06-16 12:11:00,
2013-06-16 07:16:00,75.1,72.9,29.91,SSW,194,0.0,0.0,93,0.00,CLR,,0.00,WeatherDisplay:10.37,2013-06-16 12:16:00,
2013-06-16 07:21:00,75.2,73.0,29.91,South,176,0.0,0.0,93,0.00,CLR,,0.00,WeatherDisplay:10.37,2013-06-16 12:21:00,
2013-06-16 07:26:00,75.2,73.0,29.91,SSW,209,0.4,2.3,93,0.00,CLR,,0.00,WeatherDisplay:10.37,2013-06-16 12:26:00,
2013-06-16 07:31:00,75.3,73.1,29.91,SW,223,0.0,0.0,93,0.00,CLR,,0.00,WeatherDisplay:10.37,2013-06-16 12:31:00,
2013-06-16 07:36:00,75.3,73.1,29.91,WSW,250,0.1,1.2,93,0.00,CLR,,0.00,WeatherDisplay:10.37,2013-06-16 12:36:00,
2013-06-16 07:41:00,75.4,73.2,29.92,WSW,250,0.0,0.0,93,0.00,CLR,,0.00,WeatherDisplay:10.37,2013-06-16 12:41:00,
2013-06-16 07:46:00,75.5,73.3,29.92,SW,225,0.5,1.2,93,0.00,CLR,,0.00,WeatherDisplay:10.37,2013-06-16 12:46:00,
2013-06-16 07:51:00,75.5,73.3,29.92,SW,222,0.0,0.0,93,0.00,CLR,,0.00,WeatherDisplay:10.37,2013-06-16 12:51:00,
2013-06-16 07:56:00,75.6,73.4,29.92,SW,222,0.0,0.0,93,0.00,CLR,,0.00,WeatherDisplay:10.37,2013-06-16 12:56:00,
2013-06-16 08:01:00,75.7,73.5,29.92,SW,222,0.0,0.0,93,0.00,CLR,,0.00,WeatherDisplay:10.37,2013-06-16 13:01:00,
2013-06-16 08:06:00,75.7,73.5,29.92,SW,222,0.1,1.2,93,0.00,CLR,,0.00,WeatherDisplay:10.37,2013-06-16 13:06:00,
2013-06-16 08:11:00,75.8,73.6,29.93,SW,222,0.0,0.0,93,0.00,CLR,,0.00,WeatherDisplay:10.37,2013-06-16 13:11:00,
2013-06-16 08:16:00,75.9,73.7,29.92,SSW,209,0.1,1.2,93,0.00,CLR,,0.00,WeatherDisplay:10.37,2013-06-16 13:16:00,
2013-06-16 08:21:00,76.0,73.8,29.93,WSW,252,0.1,1.2,93,0.00,CLR,,0.00,WeatherDisplay:10.37,2013-06-16 13:21:00,
2013-06-16 08:26:00,76.0,73.5,29.93,South,188,0.0,0.0,92,0.00,CLR,,0.00,WeatherDisplay:10.37,2013-06-16 13:26:00,
2013-06-16 08:31:00,76.0,73.5,29.92,West,259,0.2,2.3,92,0.00,CLR,,0.00,WeatherDisplay:10.37,2013-06-16 13:31:00,
2013-06-16 08:36:00,76.1,73.3,29.92,SW,236,0.0,0.0,91,0.00,CLR,,0.00,WeatherDisplay:10.37,2013-06-16 13:36:00,
2013-06-16 08:41:00,76.3,73.5,29.93,WSW,248,0.0,0.0,91,0.00,CLR,,0.00,WeatherDisplay:10.37,2013-06-16 13:41:00,
2013-06-16 08:46:00,76.6,73.8,29.93,West,263,0.3,3.5,91,0.00,CLR,,0.00,WeatherDisplay:10.37,2013-06-16 13:46:00,
2013-06-16 08:51:00,76.8,73.6,29.93,SSW,201,0.0,1.2,90,0.00,CLR,,0.00,WeatherDisplay:10.37,2013-06-16 13:51:00,
2013-06-16 08:56:00,77.0,73.5,29.93,South,173,0.3,1.2,89,0.00,CLR,,0.00,WeatherDisplay:10.37,2013-06-16 13:56:00,
2013-06-16 09:01:00,77.1,73.3,29.93,SSW,204,1.3,4.6,88,0.00,CLR,,0.00,WeatherDisplay:10.37,2013-06-16 14:01:00,
2013-06-16 09:06:00,77.3,73.5,29.93,WSW,241,0.4,1.2,88,0.00,CLR,,0.00,WeatherDisplay:10.37,2013-06-16 14:06:00,
2013-06-16 09:11:00,77.5,73.3,29.93,South,178,0.1,2.3,87,0.00,CLR,,0.00,WeatherDisplay:10.37,2013-06-16 14:11:00,
2013-06-16 09:16:00,77.6,73.4,29.93,WNW,291,0.4,2.3,87,0.00,CLR,,0.00,WeatherDisplay:10.37,2013-06-16 14:16:00,
2013-06-16 09:21:00,77.7,73.5,29.93,SW,215,0.0,0.0,87,0.00,CLR,,0.00,WeatherDisplay:10.37,2013-06-16 14:21:00,
2013-06-16 09:26:00,77.8,73.3,29.93,SSW,195,0.2,2.3,86,0.00,CLR,,0.00,WeatherDisplay:10.37,2013-06-16 14:26:00,
2013-06-16 09:31:00,77.9,73.4,29.94,SSW,212,0.0,0.0,86,0.00,CLR,,0.00,WeatherDisplay:10.37,2013-06-16 14:31:00,
2013-06-16 09:36:00,78.1,73.6,29.94,South,185,0.5,6.0,86,0.00,CLR,,0.00,WeatherDisplay:10.37,2013-06-16 14:36:00,
2013-06-16 09:41:00,78.3,73.8,29.94,SW,223,0.3,1.2,86,0.00,CLR,,0.00,WeatherDisplay:10.37,2013-06-16 14:41:00,
2013-06-16 09:46:00,78.7,74.2,29.94,SW,220,0.0,0.0,86,0.00,CLR,,0.00,WeatherDisplay:10.37,2013-06-16 14:46:00,
2013-06-16 09:51:00,78.9,74.0,29.95,WSW,255,0.6,1.2,85,0.00,CLR,,0.00,WeatherDisplay:10.37,2013-06-16 14:51:00,
2013-06-16 09:56:00,79.1,73.8,29.94,ESE,120,0.4,3.5,84,0.00,CLR,,0.00,WeatherDisplay:10.37,2013-06-16 14:56:00,
2013-06-16 10:01:00,79.3,73.7,29.95,SW,235,0.9,2.3,83,0.00,CLR,,0.00,WeatherDisplay:10.37,2013-06-16 15:01:00,
2013-06-16 10:06:00,79.4,73.8,29.95,West,265,0.0,0.0,83,0.00,CLR,,0.00,WeatherDisplay:10.37,2013-06-16 15:06:00,
2013-06-16 10:11:00,79.7,73.7,29.95,WSW,242,2.1,3.5,82,0.00,CLR,,0.00,WeatherDisplay:10.37,2013-06-16 15:11:00,
2013-06-16 10:16:00,79.9,73.9,29.94,WSW,246,0.1,2.3,82,0.00,CLR,,0.00,WeatherDisplay:10.37,2013-06-16 15:16:00,
2013-06-16 10:21:00,80.0,73.6,29.94,WSW,254,0.1,0.0,81,0.00,CLR,,0.00,WeatherDisplay:10.37,2013-06-16 15:21:00,
2013-06-16 10:26:00,80.0,73.6,29.94,West,271,0.0,6.0,81,0.00,CLR,,0.00,WeatherDisplay:10.37,2013-06-16 15:26:00,
2013-06-16 10:31:00,80.1,73.7,29.94,West,265,0.0,0.0,81,0.00,CLR,,0.00,WeatherDisplay:10.37,2013-06-16 15:31:00,
2013-06-16 10:36:00,80.6,74.6,29.94,SW,223,0.7,3.5,82,0.00,CLR,,0.00,WeatherDisplay:10.37,2013-06-16 15:36:00,
2013-06-16 10:41:00,81.9,74.4,29.94,SSW,200,0.0,0.0,78,0.00,CLR,,0.00,WeatherDisplay:10.37,2013-06-16 15:41:00,
2013-06-16 10:46:00,83.0,75.0,29.94,SSW,203,0.5,3.0,77,0.00,CLR,,0.00,WeatherDisplay:10.37,2013-06-16 15:46:00,
2013-06-16 10:51:00,84.0,75.2,29.94,SE,132,0.0,1.2,75,0.00,CLR,,0.00,WeatherDisplay:10.37,2013-06-16 15:51:00,
2013-06-16 10:56:00,84.9,75.3,29.94,East,86,0.9,4.0,73,0.00,CLR,,0.00,WeatherDisplay:10.37,2013-06-16 15:56:00,
2013-06-16 11:01:00,85.5,75.4,29.94,SE,145,0.0,0.0,72,0.00,CLR,,0.00,WeatherDisplay:10.37,2013-06-16 16:01:00,
2013-06-16 11:06:00,86.7,75.7,29.94,SW,225,0.0,2.0,70,0.00,CLR,,0.00,WeatherDisplay:10.37,2013-06-16 16:06:00,
2013-06-16 11:11:00,87.7,75.8,29.94,SSE,165,0.3,1.2,68,0.00,CLR,,0.00,WeatherDisplay:10.37,2013-06-16 16:11:00,
2013-06-16 11:16:00,88.2,76.3,29.94,North,9,0.2,0.0,68,0.00,CLR,,0.00,WeatherDisplay:10.37,2013-06-16 16:16:00,
2013-06-16 11:21:00,88.9,76.1,29.94,WSW,250,0.3,1.2,66,0.00,CLR,,0.00,WeatherDisplay:10.37,2013-06-16 16:21:00,
2013-06-16 11:26:00,89.1,74.9,29.94,NW,321,0.5,3.5,63,0.00,CLR,,0.00,WeatherDisplay:10.37,2013-06-16 16:26:00,
2013-06-16 11:31:00,89.3,75.5,29.94,WSW,238,0.0,3.5,64,0.00,CLR,,0.00,WeatherDisplay:10.37,2013-06-16 16:31:00,
2013-06-16 11:36:00,90.1,75.8,29.94,South,179,0.0,0.0,63,0.00,CLR,,0.00,WeatherDisplay:10.37,2013-06-16 16:36:00,
2013-06-16 11:41:00,90.4,74.6,29.94,WNW,296,1.7,3.5,60,0.00,CLR,,0.00,WeatherDisplay:10.37,2013-06-16 16:41:00,
2013-06-16 11:46:00,90.5,75.2,29.94,South,190,0.1,1.2,61,0.00,CLR,,0.00,WeatherDisplay:10.37,2013-06-16 16:46:00,
2013-06-16 11:51:00,91.0,75.7,29.94,WSW,248,0.2,1.2,61,0.00,CLR,,0.00,WeatherDisplay:10.37,2013-06-16 16:51:00,
2013-06-16 11:56:00,91.1,74.8,29.94,WSW,242,2.0,3.5,59,0.00,CLR,,0.00,WeatherDisplay:10.37,2013-06-16 16:56:00,
2013-06-16 12:01:00,91.2,74.4,29.94,SW,234,0.8,1.2,58,0.00,CLR,,0.00,WeatherDisplay:10.37,2013-06-16 17:01:00,
2013-06-16 12:06:00,91.2,75.4,29.94,NE,55,0.1,2.3,60,0.00,CLR,,0.00,WeatherDisplay:10.37,2013-06-16 17:06:00,
2013-06-16 12:11:00,91.7,75.3,29.93,ENE,69,0.7,3.5,59,0.00,CLR,,0.00,WeatherDisplay:10.37,2013-06-16 17:11:00,
2013-06-16 12:16:00,91.7,74.3,29.93,South,179,2.1,3.5,57,0.00,CLR,,0.00,WeatherDisplay:10.37,2013-06-16 17:16:00,
2013-06-16 12:21:00,91.6,75.2,29.93,South,189,1.0,3.0,59,0.00,CLR,,0.00,WeatherDisplay:10.37,2013-06-16 17:21:00,
2013-06-16 12:26:00,91.3,74.4,29.93,West,279,0.3,1.2,58,0.00,CLR,,0.00,WeatherDisplay:10.37,2013-06-16 17:26:00,
2013-06-16 12:31:00,91.3,75.0,29.93,West,270,0.7,4.0,59,0.00,CLR,,0.00,WeatherDisplay:10.37,2013-06-16 17:31:00,
2013-06-16 12:36:00,91.9,75.5,29.93,SW,219,0.1,1.2,59,0.00,CLR,,0.00,WeatherDisplay:10.37,2013-06-16 17:36:00,
2013-06-16 12:41:00,92.3,75.4,29.93,West,273,2.1,3.5,58,0.00,CLR,,0.00,WeatherDisplay:10.37,2013-06-16 17:41:00,
2013-06-16 12:46:00,93.1,75.1,29.93,SW,215,0.4,5.8,56,0.00,CLR,,0.00,WeatherDisplay:10.37,2013-06-16 17:46:00,
2013-06-16 12:51:00,93.5,73.2,29.93,NE,40,1.1,4.6,52,0.00,CLR,,0.00,WeatherDisplay:10.37,2013-06-16 17:51:00,
2013-06-16 12:56:00,93.1,74.5,29.92,WNW,284,0.9,1.2,55,0.00,CLR,,0.00,WeatherDisplay:10.37,2013-06-16 17:56:00,
2013-06-16 13:01:00,92.9,74.9,29.92,WSW,250,0.0,0.0,56,0.00,CLR,,0.00,WeatherDisplay:10.37,2013-06-16 18:01:00,
2013-06-16 13:06:00,92.9,74.4,29.92,WSW,246,0.0,0.0,55,0.00,CLR,,0.00,WeatherDisplay:10.37,2013-06-16 18:06:00,
2013-06-16 13:11:00,92.8,73.7,29.92,NW,324,0.0,2.3,54,0.00,CLR,,0.00,WeatherDisplay:10.37,2013-06-16 18:11:00,
2013-06-16 13:16:00,93.4,75.9,29.92,SW,225,0.6,4.0,57,0.00,CLR,,0.00,WeatherDisplay:10.37,2013-06-16 18:16:00,
2013-06-16 13:21:00,93.7,74.5,29.92,South,188,1.0,3.5,54,0.00,CLR,,0.00,WeatherDisplay:10.37,2013-06-16 18:21:00,
2013-06-16 13:26:00,94.4,74.1,29.92,SSW,212,0.3,1.2,52,0.00,CLR,,0.00,WeatherDisplay:10.37,2013-06-16 18:26:00,
2013-06-16 13:31:00,94.4,74.1,29.92,NE,55,0.1,0.0,52,0.00,CLR,,0.00,WeatherDisplay:10.37,2013-06-16 18:31:00,
2013-06-16 13:36:00,94.7,73.8,29.92,NE,53,0.4,2.3,51,0.00,CLR,,0.00,WeatherDisplay:10.37,2013-06-16 18:36:00,
2013-06-16 13:41:00,95.2,74.2,29.92,NW,315,0.6,2.3,51,0.00,CLR,,0.00,WeatherDisplay:10.37,2013-06-16 18:41:00,
2013-06-16 13:46:00,95.8,73.6,29.92,SSW,211,1.3,1.3,49,0.00,CLR,,0.00,WeatherDisplay:10.37,2013-06-16 18:46:00,
2013-06-16 13:51:00,96.1,73.8,29.92,WSW,250,0.0,0.0,49,0.00,CLR,,0.00,WeatherDisplay:10.37,2013-06-16 18:51:00,
2013-06-16 13:56:00,96.0,73.8,29.91,West,260,0.8,1.2,49,0.00,CLR,,0.00,WeatherDisplay:10.37,2013-06-16 18:56:00,
2013-06-16 14:01:00,96.0,75.0,29.91,SW,223,1.4,2.3,51,0.00,CLR,,0.00,WeatherDisplay:10.37,2013-06-16 19:01:00,
2013-06-16 14:06:00,95.5,74.5,29.91,SSW,208,0.0,0.0,51,0.00,CLR,,0.00,WeatherDisplay:10.37,2013-06-16 19:06:00,
2013-06-16 14:11:00,95.9,74.3,29.91,WSW,243,0.1,4.6,50,0.00,CLR,,0.00,WeatherDisplay:10.37,2013-06-16 19:11:00,
2013-06-16 14:16:00,96.5,74.8,29.90,West,259,0.5,0.0,50,0.00,CLR,,0.00,WeatherDisplay:10.37,2013-06-16 19:16:00,
2013-06-16 14:21:00,96.3,73.4,29.90,SSE,150,1.2,2.3,48,0.00,CLR,,0.00,WeatherDisplay:10.37,2013-06-16 19:21:00,
2013-06-16 14:26:00,96.2,72.7,29.90,West,268,0.2,2.3,47,0.00,CLR,,0.00,WeatherDisplay:10.37,2013-06-16 19:26:00,
2013-06-16 14:31:00,96.8,74.5,29.90,SW,225,1.1,2.3,49,0.00,CLR,,0.00,WeatherDisplay:10.37,2013-06-16 19:31:00,
2013-06-16 14:36:00,97.2,73.0,29.90,WNW,298,2.0,0.0,46,0.00,CLR,,0.00,WeatherDisplay:10.37,2013-06-16 19:36:00,
2013-06-16 14:41:00,96.6,73.7,29.89,SW,236,0.0,0.0,48,0.00,CLR,,0.00,WeatherDisplay:10.37,2013-06-16 19:41:00,
2013-06-16 14:46:00,96.9,72.7,29.89,West,279,0.1,1.2,46,0.00,CLR,,0.00,WeatherDisplay:10.37,2013-06-16 19:46:00,
2013-06-16 14:51:00,97.8,74.2,29.89,NNE,22,0.0,0.0,47,0.00,CLR,,0.00,WeatherDisplay:10.37,2013-06-16 19:51:00,
2013-06-16 14:56:00,98.6,72.9,29.89,West,265,0.8,3.5,44,0.00,CLR,,0.00,WeatherDisplay:10.37,2013-06-16 19:56:00,
2013-06-16 15:01:00,98.3,71.3,29.89,South,174,0.0,1.2,42,0.00,CLR,,0.00,WeatherDisplay:10.37,2013-06-16 20:01:00,
2013-06-16 15:06:00,98.4,72.1,29.88,South,189,0.2,3.5,43,0.00,CLR,,0.00,WeatherDisplay:10.37,2013-06-16 20:06:00,
2013-06-16 15:11:00,98.6,71.5,29.88,South,185,2.6,6.9,42,0.00,CLR,,0.00,WeatherDisplay:10.37,2013-06-16 20:11:00,
2013-06-16 15:16:00,98.7,71.6,29.88,SW,217,0.7,3.5,42,0.00,CLR,,0.00,WeatherDisplay:10.37,2013-06-16 20:16:00,
2013-06-16 15:21:00,98.6,72.9,29.88,North,360,0.2,1.2,44,0.00,CLR,,0.00,WeatherDisplay:10.37,2013-06-16 20:21:00,
2013-06-16 15:26:00,98.1,73.1,29.88,SSE,153,0.0,0.0,45,0.00,CLR,,0.00,WeatherDisplay:10.37,2013-06-16 20:26:00,
2013-06-16 15:31:00,97.7,72.8,29.87,NNE,25,0.0,1.2,45,0.00,CLR,,0.00,WeatherDisplay:10.37,2013-06-16 20:31:00,
2013-06-16 15:36:00,97.8,72.2,29.87,South,189,1.9,2.3,44,0.00,CLR,,0.00,WeatherDisplay:10.37,2013-06-16 20:36:00,
2013-06-16 15:41:00,98.3,72.6,29.87,SW,224,1.1,4.6,44,0.00,CLR,,0.00,WeatherDisplay:10.37,2013-06-16 20:41:00,
2013-06-16 15:46:00,98.6,70.1,29.87,South,182,0.9,1.2,40,0.00,CLR,,0.00,WeatherDisplay:10.37,2013-06-16 20:46:00,
2013-06-16 15:51:00,98.6,70.8,29.87,ENE,77,0.4,1.2,41,0.00,CLR,,0.00,WeatherDisplay:10.37,2013-06-16 20:51:00,
2013-06-16 15:56:00,98.6,71.5,29.86,WSW,258,0.0,0.0,42,0.00,CLR,,0.00,WeatherDisplay:10.37,2013-06-16 20:56:00,
2013-06-16 16:01:00,98.8,71.0,29.86,SW,232,0.7,1.2,41,0.00,CLR,,0.00,WeatherDisplay:10.37,2013-06-16 21:01:00,
2013-06-16 16:06:00,99.2,72.8,29.86,SW,235,0.0,0.0,43,0.00,CLR,,0.00,WeatherDisplay:10.37,2013-06-16 21:06:00,
2013-06-16 16:11:00,100.0,72.1,29.86,WSW,241,1.5,2.3,41,0.00,CLR,,0.00,WeatherDisplay:10.37,2013-06-16 21:11:00,
2013-06-16 16:16:00,100.2,71.5,29.86,West,271,0.1,2.3,40,0.00,CLR,,0.00,WeatherDisplay:10.37,2013-06-16 21:16:00,
2013-06-16 16:21:00,100.5,71.0,29.86,SSW,202,1.8,5.0,39,0.00,CLR,,0.00,WeatherDisplay:10.37,2013-06-16 21:21:00,
2013-06-16 16:26:00,100.4,70.2,29.86,NW,316,0.5,3.5,38,0.00,CLR,,0.00,WeatherDisplay:10.37,2013-06-16 21:26:00,
2013-06-16 16:31:00,100.2,71.5,29.86,South,189,0.0,0.0,40,0.00,CLR,,0.00,WeatherDisplay:10.37,2013-06-16 21:31:00,
2013-06-16 16:36:00,100.2,71.5,29.86,SSW,205,0.6,3.5,40,0.00,CLR,,0.00,WeatherDisplay:10.37,2013-06-16 21:36:00,
2013-06-16 16:41:00,100.1,71.4,29.85,WSW,248,0.2,3.5,40,0.00,CLR,,0.00,WeatherDisplay:10.37,2013-06-16 21:41:00,
2013-06-16 16:46:00,100.3,71.6,29.85,SSW,195,0.3,0.0,40,0.00,CLR,,0.00,WeatherDisplay:10.37,2013-06-16 21:46:00,
2013-06-16 16:51:00,100.5,72.5,29.85,WNW,290,0.0,0.0,41,0.00,CLR,,0.00,WeatherDisplay:10.37,2013-06-16 21:51:00,
2013-06-16 16:56:00,100.1,70.7,29.85,SW,229,0.0,2.3,39,0.00,CLR,,0.00,WeatherDisplay:10.37,2013-06-16 21:56:00,
2013-06-16 17:01:00,99.8,71.2,29.85,South,185,0.0,0.0,40,0.00,CLR,,0.00,WeatherDisplay:10.37,2013-06-16 22:01:00,
2013-06-16 17:06:00,99.9,72.0,29.84,SW,215,0.0,0.0,41,0.00,CLR,,0.00,WeatherDisplay:10.37,2013-06-16 22:06:00,
2013-06-16 17:11:00,100.1,71.4,29.84,SW,232,0.1,1.0,40,0.00,CLR,,0.00,WeatherDisplay:10.37,2013-06-16 22:11:00,
2013-06-16 17:16:00,99.9,71.3,29.84,East,82,1.3,3.5,40,0.00,CLR,,0.00,WeatherDisplay:10.37,2013-06-16 22:16:00,
2013-06-16 17:21:00,99.6,71.7,29.84,SE,125,0.0,1.2,41,0.00,CLR,,0.00,WeatherDisplay:10.37,2013-06-16 22:21:00,
2013-06-16 17:26:00,99.3,71.4,29.83,SW,217,0.6,3.5,41,0.00,CLR,,0.00,WeatherDisplay:10.37,2013-06-16 22:26:00,
2013-06-16 17:31:00,99.0,72.6,29.83,WSW,239,0.0,0.0,43,0.00,CLR,,0.00,WeatherDisplay:10.37,2013-06-16 22:31:00,
2013-06-16 17:36:00,98.6,72.2,29.83,South,188,0.0,0.0,43,0.00,CLR,,0.00,WeatherDisplay:10.37,2013-06-16 22:36:00,
2013-06-16 17:41:00,98.4,71.4,29.83,West,273,0.0,1.2,42,0.00,CLR,,0.00,WeatherDisplay:10.37,2013-06-16 22:41:00,
2013-06-16 17:46:00,98.2,72.6,29.83,West,277,0.0,0.0,44,0.00,CLR,,0.00,WeatherDisplay:10.37,2013-06-16 22:46:00,
2013-06-16 17:51:00,97.8,71.5,29.83,NNW,336,0.1,1.2,43,0.00,CLR,,0.00,WeatherDisplay:10.37,2013-06-16 22:51:00,
2013-06-16 17:56:00,97.4,72.5,29.83,WNW,297,0.0,0.0,45,0.00,CLR,,0.00,WeatherDisplay:10.37,2013-06-16 22:56:00,
2013-06-16 18:01:00,97.1,72.2,29.82,WNW,290,0.1,2.3,45,0.00,CLR,,0.00,WeatherDisplay:10.37,2013-06-16 23:01:00,
2013-06-16 18:06:00,96.6,71.8,29.82,West,266,0.0,0.0,45,0.00,CLR,,0.00,WeatherDisplay:10.37,2013-06-16 23:06:00,
2013-06-16 18:11:00,96.0,71.9,29.82,North,5,0.0,1.2,46,0.00,CLR,,0.00,WeatherDisplay:10.37,2013-06-16 23:11:00,
2013-06-16 18:16:00,95.7,71.6,29.82,North,5,0.0,1.2,46,0.00,CLR,,0.00,WeatherDisplay:10.37,2013-06-16 23:16:00,
2013-06-16 18:21:00,95.5,72.1,29.82,North,5,0.0,0.0,47,0.00,CLR,,0.00,WeatherDisplay:10.37,2013-06-16 23:21:00,
2013-06-16 18:26:00,95.0,72.2,29.82,NNE,32,0.0,0.0,48,0.00,CLR,,0.00,WeatherDisplay:10.37,2013-06-16 23:26:00,
2013-06-16 18:31:00,94.9,72.1,29.82,NNE,32,0.0,0.0,48,0.00,CLR,,0.00,WeatherDisplay:10.37,2013-06-16 23:31:00,
2013-06-16 18:36:00,94.6,71.9,29.82,WNW,302,0.3,1.2,48,0.00,CLR,,0.00,WeatherDisplay:10.37,2013-06-16 23:36:00,
2013-06-16 18:41:00,94.1,70.8,29.82,NNE,27,0.7,1.2,47,0.00,CLR,,0.00,WeatherDisplay:10.37,2013-06-16 23:41:00,
2013-06-16 18:46:00,93.7,71.0,29.82,SSW,200,0.0,1.2,48,0.00,CLR,,0.00,WeatherDisplay:10.37,2013-06-16 23:46:00,
2013-06-16 18:51:00,93.5,70.9,29.82,West,267,0.0,0.0,48,0.00,CLR,,0.00,WeatherDisplay:10.37,2013-06-16 23:51:00,
2013-06-16 18:56:00,93.2,71.2,29.82,SSE,147,0.2,1.2,49,0.00,CLR,,0.00,WeatherDisplay:10.37,2013-06-16 23:56:00,
2013-06-16 19:01:00,92.9,70.9,29.82,North,11,0.0,0.0,49,0.00,CLR,,0.00,WeatherDisplay:10.37,2013-06-17 00:01:00,
2013-06-16 19:06:00,92.7,70.1,29.82,North,351,0.2,1.2,48,0.00,CLR,,0.00,WeatherDisplay:10.37,2013-06-17 00:06:00,
2013-06-16 19:11:00,92.2,70.9,29.82,NNE,32,0.0,0.0,50,0.00,CLR,,0.00,WeatherDisplay:10.37,2013-06-17 00:11:00,
2013-06-16 19:16:00,92.0,71.3,29.82,West,281,0.0,0.0,51,0.00,CLR,,0.00,WeatherDisplay:10.37,2013-06-17 00:16:00,
2013-06-16 19:21:00,92.0,71.9,29.82,WSW,257,0.0,0.0,52,0.00,CLR,,0.00,WeatherDisplay:10.37,2013-06-17 00:21:00,
2013-06-16 19:26:00,91.9,72.3,29.82,WSW,244,0.0,0.0,53,0.00,CLR,,0.00,WeatherDisplay:10.37,2013-06-17 00:26:00,
2013-06-16 19:31:00,91.7,71.6,29.82,SW,233,0.0,1.2,52,0.00,CLR,,0.00,WeatherDisplay:10.37,2013-06-17 00:31:00,
2013-06-16 19:36:00,91.5,71.4,29.82,WNW,294,0.1,0.0,52,0.00,CLR,,0.00,WeatherDisplay:10.37,2013-06-17 00:36:00,
2013-06-16 19:41:00,91.3,71.8,29.81,WSW,257,0.0,0.0,53,0.00,CLR,,0.00,WeatherDisplay:10.37,2013-06-17 00:41:00,
2013-06-16 19:46:00,91.1,71.6,29.81,SSW,206,0.0,0.0,53,0.00,CLR,,0.00,WeatherDisplay:10.37,2013-06-17 00:46:00,
2013-06-16 19:51:00,90.9,70.8,29.81,NE,54,0.0,0.0,52,0.00,CLR,,0.00,WeatherDisplay:10.37,2013-06-17 00:51:00,
2013-06-16 19:56:00,90.7,71.2,29.81,NE,54,0.0,0.0,53,0.00,CLR,,0.00,WeatherDisplay:10.37,2013-06-17 00:56:00,
2013-06-16 20:01:00,90.5,71.0,29.81,SSW,205,0.0,0.0,53,0.00,CLR,,0.00,WeatherDisplay:10.37,2013-06-17 01:01:00,
2013-06-16 20:06:00,90.4,71.5,29.81,SSW,205,0.0,0.0,54,0.00,CLR,,0.00,WeatherDisplay:10.37,2013-06-17 01:06:00,
2013-06-16 20:11:00,90.2,71.8,29.81,SSW,205,0.0,0.0,55,0.00,CLR,,0.00,WeatherDisplay:10.37,2013-06-17 01:11:00,
2013-06-16 20:16:00,89.9,72.1,29.81,NE,47,0.0,0.0,56,0.00,CLR,,0.00,WeatherDisplay:10.37,2013-06-17 01:16:00,
2013-06-16 20:21:00,89.5,72.3,29.81,North,5,0.0,1.2,57,0.00,CLR,,0.00,WeatherDisplay:10.37,2013-06-17 01:21:00,
2013-06-16 20:26:00,89.3,73.1,29.81,SSW,207,0.3,2.3,59,0.00,CLR,,0.00,WeatherDisplay:10.37,2013-06-17 01:26:00,
2013-06-16 20:31:00,89.0,72.8,29.82,SSW,192,0.0,0.0,59,0.00,CLR,,0.00,WeatherDisplay:10.37,2013-06-17 01:31:00,
2013-06-16 20:36:00,88.7,73.0,29.82,NE,52,0.2,0.0,60,0.00,CLR,,0.00,WeatherDisplay:10.37,2013-06-17 01:36:00,
2013-06-16 20:41:00,88.5,73.3,29.82,WSW,238,0.0,0.0,61,0.00,CLR,,0.00,WeatherDisplay:10.37,2013-06-17 01:41:00,
2013-06-16 20:46:00,88.2,73.0,29.82,West,263,0.0,0.0,61,0.00,CLR,,0.00,WeatherDisplay:10.37,2013-06-17 01:46:00,
2013-06-16 20:51:00,87.9,73.3,29.82,WNW,296,0.0,0.0,62,0.00,CLR,,0.00,WeatherDisplay:10.37,2013-06-17 01:51:00,
2013-06-16 20:56:00,87.6,73.4,29.82,WNW,296,0.0,0.0,63,0.00,CLR,,0.00,WeatherDisplay:10.37,2013-06-17 01:56:00,
2013-06-16 21:01:00,87.3,73.6,29.82,WSW,246,0.0,0.0,64,0.00,CLR,,0.00,WeatherDisplay:10.37,2013-06-17 02:01:00,
2013-06-16 21:06:00,87.0,73.3,29.83,WSW,245,0.0,0.0,64,0.00,CLR,,0.00,WeatherDisplay:10.37,2013-06-17 02:06:00,
2013-06-16 21:11:00,86.8,73.6,29.83,SSW,196,0.0,0.0,65,0.00,CLR,,0.00,WeatherDisplay:10.37,2013-06-17 02:11:00,
2013-06-16 21:16:00,86.5,73.8,29.83,West,269,0.0,0.0,66,0.00,CLR,,0.00,WeatherDisplay:10.37,2013-06-17 02:16:00,
2013-06-16 21:21:00,86.2,74.0,29.84,East,91,0.0,0.0,67,0.00,CLR,,0.00,WeatherDisplay:10.37,2013-06-17 02:21:00,
2013-06-16 21:26:00,85.9,74.1,29.84,WSW,245,0.1,3.5,68,0.00,CLR,,0.00,WeatherDisplay:10.37,2013-06-17 02:26:00,
2013-06-16 21:31:00,85.6,74.3,29.84,West,275,0.0,1.2,69,0.00,CLR,,0.00,WeatherDisplay:10.37,2013-06-17 02:31:00,
2013-06-16 21:36:00,85.3,74.4,29.84,SW,219,0.0,3.5,70,0.00,CLR,,0.00,WeatherDisplay:10.37,2013-06-17 02:36:00,
2013-06-16 21:41:00,85.0,74.1,29.85,SSW,212,0.0,0.0,70,0.00,CLR,,0.00,WeatherDisplay:10.37,2013-06-17 02:41:00,
2013-06-16 21:46:00,84.8,74.3,29.85,SSW,212,0.0,0.0,71,0.00,CLR,,0.00,WeatherDisplay:10.37,2013-06-17 02:46:00,
2013-06-16 21:51:00,84.7,74.7,29.85,SW,225,0.0,0.0,72,0.00,CLR,,0.00,WeatherDisplay:10.37,2013-06-17 02:51:00,
2013-06-16 21:56:00,84.4,74.4,29.86,SW,231,0.0,0.0,72,0.00,CLR,,0.00,WeatherDisplay:10.37,2013-06-17 02:56:00,
2013-06-16 22:01:00,84.2,74.6,29.86,SW,235,0.0,2.3,73,0.00,CLR,,0.00,WeatherDisplay:10.37,2013-06-17 03:01:00,
2013-06-16 22:06:00,84.0,74.4,29.86,SW,235,0.0,0.0,73,0.00,CLR,,0.00,WeatherDisplay:10.37,2013-06-17 03:06:00,
2013-06-16 22:11:00,83.9,74.7,29.86,WSW,252,0.1,1.2,74,0.00,CLR,,0.00,WeatherDisplay:10.37,2013-06-17 03:11:00,
2013-06-16 22:16:00,83.7,74.5,29.86,NE,46,0.0,0.0,74,0.00,CLR,,0.00,WeatherDisplay:10.37,2013-06-17 03:16:00,
2013-06-16 22:21:00,83.5,74.7,29.87,NE,46,0.0,0.0,75,0.00,CLR,,0.00,WeatherDisplay:10.37,2013-06-17 03:21:00,
2013-06-16 22:26:00,83.2,74.4,29.87,NW,307,0.3,0.0,75,0.00,CLR,,0.00,WeatherDisplay:10.37,2013-06-17 03:26:00,
2013-06-16 22:31:00,83.0,74.6,29.87,SSW,212,0.0,0.0,76,0.00,CLR,,0.00,WeatherDisplay:10.37,2013-06-17 03:31:00,
2013-06-16 22:36:00,82.8,74.5,29.87,West,271,0.3,2.3,76,0.00,CLR,,0.00,WeatherDisplay:10.37,2013-06-17 03:36:00,
2013-06-16 22:41:00,82.5,74.2,29.87,NW,319,0.3,1.2,76,0.00,CLR,,0.00,WeatherDisplay:10.37,2013-06-17 03:41:00,
2013-06-16 22:46:00,82.4,74.1,29.88,NW,317,0.0,0.0,76,0.00,CLR,,0.00,WeatherDisplay:10.37,2013-06-17 03:46:00,
2013-06-16 22:51:00,82.2,73.9,29.88,West,272,0.4,1.2,76,0.00,CLR,,0.00,WeatherDisplay:10.37,2013-06-17 03:51:00,
2013-06-16 22:56:00,82.0,73.7,29.88,NE,48,0.0,0.0,76,0.00,CLR,,0.00,WeatherDisplay:10.37,2013-06-17 03:56:00,
2013-06-16 23:01:00,81.8,73.5,29.88,WSW,249,1.1,1.2,76,0.00,CLR,,0.00,WeatherDisplay:10.37,2013-06-17 04:01:00,
2013-06-16 23:06:00,81.6,73.7,29.88,WSW,246,0.0,0.0,77,0.00,CLR,,0.00,WeatherDisplay:10.37,2013-06-17 04:06:00,
2013-06-16 23:11:00,81.5,73.6,29.88,WSW,248,0.0,0.0,77,0.00,CLR,,0.00,WeatherDisplay:10.37,2013-06-17 04:11:00,
2013-06-16 23:16:00,81.4,73.5,29.88,WSW,250,0.1,1.2,77,0.00,CLR,,0.00,WeatherDisplay:10.37,2013-06-17 04:16:00,
2013-06-16 23:21:00,81.2,73.3,29.88,WSW,248,0.4,2.3,77,0.00,CLR,,0.00,WeatherDisplay:10.37,2013-06-17 04:21:00,
2013-06-16 23:26:00,81.0,73.5,29.88,SW,234,0.2,2.3,78,0.00,CLR,,0.00,WeatherDisplay:10.37,2013-06-17 04:26:00,
2013-06-16 23:31:00,80.9,73.4,29.88,West,272,0.0,0.0,78,0.00,CLR,,0.00,WeatherDisplay:10.37,2013-06-17 04:31:00,
2013-06-16 23:36:00,80.7,73.2,29.87,WNW,292,0.0,1.2,78,0.00,CLR,,0.00,WeatherDisplay:10.37,2013-06-17 04:36:00,
2013-06-16 23:41:00,80.6,73.5,29.87,WNW,292,0.0,0.0,79,0.00,CLR,,0.00,WeatherDisplay:10.37,2013-06-17 04:41:00,
2013-06-16 23:46:00,80.5,73.4,29.87,WNW,292,0.0,0.0,79,0.00,CLR,,0.00,WeatherDisplay:10.37,2013-06-17 04:46:00,
2013-06-16 23:51:00,80.3,73.2,29.88,WNW,292,0.0,0.0,79,0.00,CLR,,0.00,WeatherDisplay:10.37,2013-06-17 04:51:00,
2013-06-16 23:56:00,80.2,73.5,29.88,WNW,292,0.0,0.0,80,0.00,CLR,,0.00,WeatherDisplay:10.37,2013-06-17 04:56:00,